User: anonymous   Login
Location: Beccas
(43.4309°N, 0.1528°E)
Time: 02:23:59
(UTC+00:00)
Language:

SL-16 R/B - Orbit

View from above orbital plane
View from above orbital plane
View from above satellite
View from above satellite

Ground track
Ground track

The orbit data is extracted from the following two-line orbital elements,

1 31793U 07029B   22020.59320892 -.00000249  00000-0 -10477-3 0  9994
2 31793  70.9758 103.4824 0002150 264.0137 197.2007 14.14457390751955
Epoch (UTC): 20 January 2022 14:14:13
Eccentricity: 0.0002150
inclination: 70.9758°
perigee height: 842 km
apogee height: 846 km
right ascension of ascending node: 103.4824°
argument of perigee: 264.0137°
revolutions per day: 14.14457390
mean anomaly at epoch: 197.2007°
orbit number at epoch: 75195

The dashed part of the orbit path shows where the satellite is in the earth's shadow,  

DLR